Time,TemperatureF,DewpointF,PressureIn,WindDirection,WindDirectionDegrees,WindSpeedMPH,WindSpeedGustMPH,Humidity,HourlyPrecipIn,Conditions,Clouds,dailyrainin,SoftwareType,DateUTC
2013-10-03 00:12:00,60.5,59.0,30.02,NE,56,0.0,0.0,94,0.00,,,0.00,weatherlink.com 1.10,2013-10-03 04:12:00,
2013-10-03 00:27:00,60.5,59.0,30.02,NE,56,0.0,2.0,95,0.00,,,0.00,weatherlink.com 1.10,2013-10-03 04:27:00,
2013-10-03 00:42:00,60.3,59.0,30.02,NE,56,0.0,0.0,95,0.00,,,0.00,weatherlink.com 1.10,2013-10-03 04:42:00,
2013-10-03 00:57:00,60.1,59.0,30.02,NE,56,0.0,0.0,95,0.00,,,0.00,weatherlink.com 1.10,2013-10-03 04:57:00,
2013-10-03 01:12:00,59.9,59.0,30.02,NE,56,0.0,1.0,95,0.00,,,0.00,weatherlink.com 1.10,2013-10-03 05:12:00,
2013-10-03 01:27:00,59.8,59.0,30.02,NE,56,0.0,1.0,96,0.00,,,0.00,weatherlink.com 1.10,2013-10-03 05:27:00,
2013-10-03 01:42:00,59.4,58.0,30.02,NE,56,0.0,1.0,95,0.00,,,0.00,weatherlink.com 1.10,2013-10-03 05:42:00,
2013-10-03 01:57:00,59.4,58.0,30.01,NE,56,0.0,1.0,96,0.00,,,0.00,weatherlink.com 1.10,2013-10-03 05:57:00,
2013-10-03 02:12:00,59.3,58.0,30.02,NE,54,0.0,2.0,96,0.00,,,0.00,weatherlink.com 1.10,2013-10-03 06:12:00,
2013-10-03 02:27:00,59.4,59.0,30.01,NE,54,0.0,1.0,97,0.00,,,0.00,weatherlink.com 1.10,2013-10-03 06:27:00,
2013-10-03 02:42:00,59.3,58.0,30.00,NE,54,0.0,1.0,96,0.00,,,0.00,weatherlink.com 1.10,2013-10-03 06:42:00,
2013-10-03 02:57:00,59.6,59.0,30.00,NE,54,0.0,1.0,97,0.00,,,0.00,weatherlink.com 1.10,2013-10-03 06:57:00,
2013-10-03 03:12:00,59.6,59.0,30.00,NE,54,0.0,0.0,97,0.00,,,0.00,weatherlink.com 1.10,2013-10-03 07:12:00,
2013-10-03 03:27:00,59.2,58.0,30.00,NE,54,0.0,0.0,96,0.00,,,0.00,weatherlink.com 1.10,2013-10-03 07:27:00,
2013-10-03 03:42:00,59.0,58.0,29.99,NE,54,0.0,0.0,96,0.00,,,0.00,weatherlink.com 1.10,2013-10-03 07:42:00,
2013-10-03 03:57:00,59.8,59.0,29.99,NE,54,1.0,1.0,98,0.00,,,0.00,weatherlink.com 1.10,2013-10-03 07:57:00,
2013-10-03 04:12:00,59.9,59.0,29.99,NE,54,0.0,0.0,97,0.00,,,0.00,weatherlink.com 1.10,2013-10-03 08:12:00,
2013-10-03 04:27:00,59.9,59.0,29.99,NE,54,0.0,2.0,97,0.00,,,0.00,weatherlink.com 1.10,2013-10-03 08:27:00,
2013-10-03 04:42:00,59.8,59.0,29.99,NE,54,0.0,0.0,97,0.00,,,0.00,weatherlink.com 1.10,2013-10-03 08:42:00,
2013-10-03 04:57:00,59.6,59.0,29.98,NE,54,0.0,1.0,97,0.00,,,0.00,weatherlink.com 1.10,2013-10-03 08:57:00,
2013-10-03 05:12:00,59.3,59.0,29.99,NE,54,0.0,0.0,97,0.00,,,0.00,weatherlink.com 1.10,2013-10-03 09:12:00,
2013-10-03 05:27:00,58.7,58.0,29.99,ENE,64,0.0,2.0,97,0.00,,,0.00,weatherlink.com 1.10,2013-10-03 09:27:00,
2013-10-03 05:42:00,58.7,58.0,29.99,ENE,64,0.0,0.0,97,0.00,,,0.00,weatherlink.com 1.10,2013-10-03 09:42:00,
2013-10-03 05:57:00,58.7,58.0,29.99,ENE,64,1.0,2.0,97,0.00,,,0.00,weatherlink.com 1.10,2013-10-03 09:57:00,
2013-10-03 06:12:00,58.5,58.0,30.00,ENE,64,0.0,0.0,97,0.00,,,0.00,weatherlink.com 1.10,2013-10-03 10:12:00,
2013-10-03 06:27:00,58.4,58.0,30.00,ENE,64,0.0,1.0,97,0.00,,,0.00,weatherlink.com 1.10,2013-10-03 10:27:00,
2013-10-03 06:42:00,58.3,58.0,30.01,ENE,64,0.0,0.0,97,0.00,,,0.00,weatherlink.com 1.10,2013-10-03 10:42:00,
2013-10-03 06:57:00,58.4,58.0,30.01,ENE,64,0.0,2.0,97,0.00,,,0.00,weatherlink.com 1.10,2013-10-03 10:57:00,
2013-10-03 07:12:00,58.0,57.0,30.01,ENE,64,0.0,0.0,97,0.00,,,0.00,weatherlink.com 1.10,2013-10-03 11:12:00,
2013-10-03 07:27:00,57.7,57.0,30.01,ENE,64,0.0,0.0,97,0.00,,,0.00,weatherlink.com 1.10,2013-10-03 11:27:00,
2013-10-03 07:42:00,57.9,57.0,30.01,ENE,64,1.0,1.0,98,0.00,,,0.00,weatherlink.com 1.10,2013-10-03 11:42:00,
2013-10-03 07:57:00,58.2,58.0,30.01,ENE,64,0.0,2.0,98,0.00,,,0.00,weatherlink.com 1.10,2013-10-03 11:57:00,
2013-10-03 08:12:00,59.0,59.0,30.02,ENE,64,0.0,1.0,98,0.00,,,0.00,weatherlink.com 1.10,2013-10-03 12:12:00,
2013-10-03 08:27:00,60.5,60.0,30.02,ENE,64,0.0,0.0,98,0.00,,,0.00,weatherlink.com 1.10,2013-10-03 12:27:00,
2013-10-03 08:42:00,62.5,62.0,30.02,ENE,64,0.0,1.0,99,0.00,,,0.00,weatherlink.com 1.10,2013-10-03 12:42:00,
2013-10-03 08:57:00,63.9,64.0,30.02,ENE,64,0.0,1.0,99,0.00,,,0.00,weatherlink.com 1.10,2013-10-03 12:57:00,
2013-10-03 09:13:00,65.8,64.0,30.03,ENE,64,0.0,1.0,94,0.00,,,0.00,weatherlink.com 1.10,2013-10-03 13:13:00,
2013-10-03 09:28:00,68.3,64.0,30.03,South,178,0.0,3.0,85,0.00,,,0.00,weatherlink.com 1.10,2013-10-03 13:28:00,
2013-10-03 09:43:00,69.5,64.0,30.04,WSW,240,2.0,3.0,83,0.00,,,0.00,weatherlink.com 1.10,2013-10-03 13:43:00,
2013-10-03 09:58:00,70.9,64.0,30.03,South,181,2.0,3.0,80,0.00,,,0.00,weatherlink.com 1.10,2013-10-03 13:58:00,
2013-10-03 10:13:00,71.7,65.0,30.03,South,178,1.0,4.0,79,0.00,,,0.00,weatherlink.com 1.10,2013-10-03 14:13:00,
2013-10-03 10:28:00,73.0,65.0,30.03,South,186,2.0,4.0,75,0.00,,,0.00,weatherlink.com 1.10,2013-10-03 14:28:00,
2013-10-03 10:43:00,73.6,64.0,30.03,South,188,4.0,5.0,73,0.00,,,0.00,weatherlink.com 1.10,2013-10-03 14:43:00,
2013-10-03 10:58:00,74.5,65.0,30.03,South,177,4.0,5.0,72,0.00,,,0.00,weatherlink.com 1.10,2013-10-03 14:58:00,
2013-10-03 11:13:00,74.8,65.0,30.03,West,262,2.0,5.0,71,0.00,,,0.00,weatherlink.com 1.10,2013-10-03 15:13:00,
2013-10-03 11:28:00,75.3,65.0,30.03,South,185,1.0,8.0,71,0.00,,,0.00,weatherlink.com 1.10,2013-10-03 15:28:00,
2013-10-03 11:43:00,75.8,64.0,30.02,South,171,3.0,6.0,68,0.00,,,0.00,weatherlink.com 1.10,2013-10-03 15:43:00,
2013-10-03 11:58:00,76.8,66.0,30.02,SSE,157,6.0,7.0,69,0.00,,,0.00,weatherlink.com 1.10,2013-10-03 15:58:00,
2013-10-03 12:13:00,77.6,65.0,30.02,South,175,3.0,7.0,66,0.00,,,0.00,weatherlink.com 1.10,2013-10-03 16:13:00,
2013-10-03 12:28:00,77.9,65.0,30.02,South,171,4.0,7.0,65,0.00,,,0.00,weatherlink.com 1.10,2013-10-03 16:28:00,
2013-10-03 12:43:00,78.7,65.0,30.01,SW,219,4.0,8.0,64,0.00,,,0.00,weatherlink.com 1.10,2013-10-03 16:43:00,
2013-10-03 12:58:00,79.2,65.0,30.01,South,173,4.0,7.0,62,0.00,,,0.00,weatherlink.com 1.10,2013-10-03 16:58:00,
2013-10-03 13:13:00,79.2,64.0,30.01,WSW,244,0.0,9.0,59,0.00,,,0.00,weatherlink.com 1.10,2013-10-03 17:13:00,
2013-10-03 13:28:00,79.8,63.0,30.00,WSW,257,5.0,8.0,57,0.00,,,0.00,weatherlink.com 1.10,2013-10-03 17:28:00,
2013-10-03 13:43:00,79.9,64.0,30.00,South,173,3.0,10.0,58,0.00,,,0.00,weatherlink.com 1.10,2013-10-03 17:43:00,
2013-10-03 13:58:00,81.2,62.0,29.99,West,267,5.0,10.0,53,0.00,,,0.00,weatherlink.com 1.10,2013-10-03 17:58:00,
2013-10-03 14:13:00,80.0,63.0,29.99,SSW,211,4.0,7.0,56,0.00,,,0.00,weatherlink.com 1.10,2013-10-03 18:13:00,
2013-10-03 14:28:00,81.9,64.0,29.98,SSW,207,1.0,7.0,55,0.00,,,0.00,weatherlink.com 1.10,2013-10-03 18:28:00,
2013-10-03 14:43:00,81.4,63.0,29.98,SSW,213,3.0,9.0,54,0.00,,,0.00,weatherlink.com 1.10,2013-10-03 18:43:00,
2013-10-03 14:58:00,81.3,61.0,29.98,South,184,6.0,12.0,51,0.00,,,0.00,weatherlink.com 1.10,2013-10-03 18:58:00,
2013-10-03 15:13:00,81.9,62.0,29.97,ESE,123,5.0,11.0,51,0.00,,,0.00,weatherlink.com 1.10,2013-10-03 19:13:00,
2013-10-03 15:28:00,81.8,62.0,29.97,South,185,4.0,8.0,51,0.00,,,0.00,weatherlink.com 1.10,2013-10-03 19:28:00,
2013-10-03 15:43:00,81.5,62.0,29.96,WSW,240,8.0,9.0,51,0.00,,,0.00,weatherlink.com 1.10,2013-10-03 19:43:00,
2013-10-03 15:58:00,81.4,62.0,29.96,South,172,4.0,6.0,52,0.00,,,0.00,weatherlink.com 1.10,2013-10-03 19:58:00,
2013-10-03 16:14:00,81.0,63.0,29.96,SSE,159,1.0,7.0,54,0.00,,,0.00,weatherlink.com 1.10,2013-10-03 20:14:00,
2013-10-03 16:29:00,80.9,63.0,29.96,South,191,4.0,6.0,54,0.00,,,0.00,weatherlink.com 1.10,2013-10-03 20:29:00,
2013-10-03 16:44:00,81.4,63.0,29.96,SSE,159,6.0,9.0,54,0.00,,,0.00,weatherlink.com 1.10,2013-10-03 20:44:00,
2013-10-03 16:59:00,81.0,63.0,29.96,SW,217,4.0,7.0,55,0.00,,,0.00,weatherlink.com 1.10,2013-10-03 20:59:00,
2013-10-03 17:14:00,79.4,63.0,29.96,South,185,3.0,6.0,58,0.00,,,0.00,weatherlink.com 1.10,2013-10-03 21:14:00,
2013-10-03 17:29:00,78.0,63.0,29.96,SE,130,1.0,4.0,61,0.00,,,0.00,weatherlink.com 1.10,2013-10-03 21:29:00,
2013-10-03 17:44:00,78.5,65.0,29.96,SSW,195,1.0,3.0,63,0.00,,,0.00,weatherlink.com 1.10,2013-10-03 21:44:00,
2013-10-03 17:59:00,79.5,64.0,29.96,South,186,1.0,5.0,60,0.00,,,0.00,weatherlink.com 1.10,2013-10-03 21:59:00,
2013-10-03 18:14:00,79.6,63.0,29.96,SSW,194,1.0,5.0,58,0.00,,,0.00,weatherlink.com 1.10,2013-10-03 22:14:00,
2013-10-03 18:29:00,78.9,64.0,29.96,South,174,1.0,3.0,60,0.00,,,0.00,weatherlink.com 1.10,2013-10-03 22:29:00,
2013-10-03 18:44:00,77.9,64.0,29.97,South,174,0.0,1.0,62,0.00,,,0.00,weatherlink.com 1.10,2013-10-03 22:44:00,
2013-10-03 18:59:00,76.6,64.0,29.97,South,174,0.0,0.0,66,0.00,,,0.00,weatherlink.com 1.10,2013-10-03 22:59:00,
2013-10-03 19:14:00,73.7,65.0,29.98,South,174,0.0,1.0,73,0.00,,,0.00,weatherlink.com 1.10,2013-10-03 23:14:00,
2013-10-03 19:29:00,71.1,64.0,29.98,SE,129,0.0,2.0,78,0.00,,,0.00,weatherlink.com 1.10,2013-10-03 23:29:00,
2013-10-03 19:44:00,69.5,64.0,29.98,SE,129,0.0,2.0,82,0.00,,,0.00,weatherlink.com 1.10,2013-10-03 23:44:00,
2013-10-03 19:59:00,68.4,63.0,29.98,SE,129,0.0,2.0,84,0.00,,,0.00,weatherlink.com 1.10,2013-10-03 23:59:00,
2013-10-03 20:14:00,67.2,63.0,29.98,SE,129,1.0,2.0,87,0.00,,,0.00,weatherlink.com 1.10,2013-10-04 00:14:00,
2013-10-03 20:29:00,66.4,63.0,29.98,East,101,0.0,2.0,89,0.00,,,0.00,weatherlink.com 1.10,2013-10-04 00:29:00,
2013-10-03 20:44:00,65.8,63.0,29.98,East,101,0.0,2.0,89,0.00,,,0.00,weatherlink.com 1.10,2013-10-04 00:44:00,
2013-10-03 20:59:00,65.3,62.0,29.99,East,101,0.0,0.0,90,0.00,,,0.00,weatherlink.com 1.10,2013-10-04 00:59:00,
2013-10-03 21:14:00,64.7,62.0,29.99,East,101,0.0,2.0,90,0.00,,,0.00,weatherlink.com 1.10,2013-10-04 01:14:00,
2013-10-03 21:29:00,64.5,62.0,29.99,East,101,0.0,1.0,91,0.00,,,0.00,weatherlink.com 1.10,2013-10-04 01:29:00,
2013-10-03 21:44:00,64.1,62.0,30.00,East,101,0.0,1.0,91,0.00,,,0.00,weatherlink.com 1.10,2013-10-04 01:44:00,
2013-10-03 21:59:00,63.6,61.0,30.00,East,101,0.0,0.0,92,0.00,,,0.00,weatherlink.com 1.10,2013-10-04 01:59:00,
2013-10-03 22:14:00,63.0,61.0,30.00,East,101,0.0,2.0,92,0.00,,,0.00,weatherlink.com 1.10,2013-10-04 02:14:00,
2013-10-03 22:29:00,62.8,61.0,30.00,East,101,1.0,1.0,93,0.00,,,0.00,weatherlink.com 1.10,2013-10-04 02:29:00,
2013-10-03 22:44:00,63.0,61.0,30.01,NE,44,2.0,3.0,94,0.00,,,0.00,weatherlink.com 1.10,2013-10-04 02:44:00,
2013-10-03 22:59:00,62.7,61.0,30.01,NE,44,0.0,1.0,93,0.00,,,0.00,weatherlink.com 1.10,2013-10-04 02:59:00,
2013-10-03 23:14:00,62.2,61.0,30.01,NE,44,0.0,1.0,94,0.00,,,0.00,weatherlink.com 1.10,2013-10-04 03:14:00,
2013-10-03 23:29:00,61.8,60.0,30.00,NE,44,0.0,1.0,94,0.00,,,0.00,weatherlink.com 1.10,2013-10-04 03:29:00,
2013-10-03 23:44:00,61.8,60.0,30.01,NE,44,0.0,1.0,94,0.00,,,0.00,weatherlink.com 1.10,2013-10-04 03:44:00,
2013-10-03 23:59:00,61.5,60.0,30.00,NE,44,0.0,0.0,95,0.00,,,0.00,weatherlink.com 1.10,2013-10-04 03:59:00,